Torna al catalogo

CZ-6A DEB

AttivoPO
NORAD 60838·DEBRIS·🇨🇳 China

Lanciato Aug 6, 2024 da Taiyuan Satellite Launch Center

Loading…

Prossimi Passaggi (prossime 24 ore)

TLE

AggiornatoSource: Space-Track

Epoca: Sep 14, 2026, 23:15 UTC

1 60838U 24140HR  26257.96899266  .00001998  00000-0  47833-3 0  9998
2 60838  89.0759 267.8871 0067546 301.3030  58.1576 14.51841662110464

Traccia CZ-6A DEB in tempo reale con AllMySat

Download on the App Store